OBJECT D, 61230

Orbit data source: Space-Track

You're viewing an Uncataloged Satellite

Recently launched and/or uncataloged satellites may have evolving metadata. Metadata may include but not limited to: Owner, Maufacturer, Bus, Motor, and Mission.

OBJECT D, 61230 is a Chinese satellite in SSO that was launched on Tue, 24 Sep 2024 UTC via a JIELONG-3 launch vehicle from the Yellow Sea Launch Area, China (YSLA). Unknown objects in Earth's orbit typically refer to objects detected orbiting the Earth but have not yet been identified or cataloged. These objects could be anything from previously untracked satellites, spent rocket stages, debris from satellite collisions, or even natural meteoroids temporarily captured by Earth's gravity.

Loading next visibility...
OBJECT D details
Identifier
61230, 2024-173D
Orbit
SSO
Last TLE update10 hours ago
Origin
Flag of CNZHYE (CN / PRC)
ManufacturerChangsha Tianyi
MissionOperational spacecraft
Bus & MotorGZ-1, Unknown motor
Mass285 kg wet, 285 kg dry
Launch date (UTC)
2024-09-24 (3 months ago)
Launch vehicle
JIELONG-3
Launch site
Yellow Sea Launch Area, China (YSLA)
Object typeUnknown
Shape & HBRUnknown
Radar Cross SectionMedium (>0.1 m² and <1 m²)

Expand to show TLE details & history

TLE from 10 hours ago
0 OBJECT D
1 61230U 24173D   24356.10110890  .00033767  00000-0  11152-2 0  9997
2 61230  97.3968  68.3039 0010251 337.1537  22.9246 15.31269285 13420
Epoch: 2024-12-21T02:25Z
Definitive object data (Epoch: 2024-12-21T02:25:35.808Z)
Latitude-0.00013°
Longitude-58.25239°
Altitude468.662 km
Speed7.635 km/s
True Right ascension04h 33m 12s
True Declination0° 00' 00"
Sunlit
Object was in full shadow at TLE epoch
Visualization TLE readout
Latitude51.33844°
Longitude131.44826°
Altitude486.502 km
Speed7.624 km/s
Apparent Right ascension20h 34m 37s
Apparent Declination11° 19' 20"
Sunlit
Object is in daylight
Visualization observer readout
Local Sidereal Time11:25:27
Azimuth47.336° ENE
Elevation-25.255°
Doppler factor1
Orbital elements
Apogee altitude475.994 km
Perigee altitude461.956 km
Semi-major axis6,847.112 km
Eccentricity0.0010251
Inclination97.3968°
RAAN68.3039°
Arg. of periapsis337.1537°
True anomaly22.97041°
Mean anomaly22.9246°
Eccentric anomaly22.9475°
Mean motion3.83073 °/min
BSTAR0.0011152
Orbital period93.98 mins
Loading maneuver chart data...
Loading historical data...
Loading historical data...
Loading historical data...
Loading historical data...
Loading historical data...
Loading historical data...
Loading historical data...

OBJECT D Visibility forecast

Observer location: undefined°, undefined

Span
Click to sort rows by Start time (UTC) header in descending order
Start Az.
Max El. time (UTC)
Max El. Az.
Max El.
End time (UTC)
End Az.
4 mins2024-12-21 17:07:39.576Z59.584° ENE2024-12-21 17:09:39.576Z102.419° ESE18.202°2024-12-21 17:11:39.576Z139.286° SSE
5 mins2024-12-22 05:13:39.576Z178.616° S2024-12-22 05:15:39.576Z256.039° W43.249°2024-12-22 05:18:39.576Z342.338° N
|